KD4PYR Weather Reports


Display with metric or nautical units.
time (UTC)temp
F
wind
direction
speed
MPH
gust
MPH
rain 1hr
in
rain 24hr
in
rain mn
in
humidity
%
barometer
mb
20260507085815 42 281 1.0 3.0 0.00 0.06 0.00 81 1012.7
20260507084838 42 281 1.0 3.0 0.00 0.06 0.00 82 1012.6
20260507083831 42 284 0.0 1.0 0.00 0.06 0.00 82 1012.6
20260507082847 41 284 0.0 0.0 0.00 0.06 0.00 82 1012.4
20260507081839 41 284 0.0 1.0 0.00 0.06 0.00 82 1012.4
20260507080830 41 284 0.0 1.0 0.00 0.06 0.00 82 1012.4
20260507075833 41 284 0.0 0.0 0.00 0.16 0.00 82 1012.5
20260507074838 42 284 0.0 0.0 0.00 0.16 0.00 81 1012.4
20260507073829 42 284 0.0 0.0 0.00 0.16 0.00 81 1012.4
20260507072822 42 284 0.0 0.0 0.00 0.16 0.00 81 1012.4
20260507071902 42 284 0.0 0.0 0.00 0.16 0.00 80 1012.5
20260507070900 43 284 0.0 0.0 0.00 0.16 0.00 80 1012.5
20260507065851 44 284 0.0 1.0 0.00 0.27 0.00 80 1012.5
20260507064831 44 284 0.0 1.0 0.00 0.27 0.00 80 1012.4
20260507063823 44 284 0.0 1.0 0.00 0.27 0.00 80 1012.5
20260507062844 44 284 1.0 2.0 0.00 0.27 0.00 81 1012.6
20260507061839 43 284 1.0 2.0 0.00 0.27 0.00 81 1012.6
20260507060829 43 284 0.0 1.0 0.00 0.27 0.00 82 1012.6
20260507055814 43 284 0.0 0.0 0.00 0.36 0.00 82 1012.6
20260507054838 44 284 0.0 0.0 0.00 0.36 0.00 82 1012.6
20260507053831 44 284 0.0 0.0 0.00 0.36 0.00 82 1012.6
20260507052827 44 283 0.0 0.0 0.00 0.36 0.00 82 1012.7
20260507051901 43 284 0.0 0.0 0.00 0.36 0.00 81 1012.7
20260507050836 44 284 0.0 0.0 0.00 0.36 0.00 81 1012.5
20260507045840 44 284 0.0 0.0 0.00 0.43 0.00 82 1012.7
20260507044842 44 284 0.0 0.0 0.00 0.43 0.00 81 1012.6
20260507043814 45 284 0.0 0.0 0.00 0.43 0.00 81 1012.7
20260507042831 45 284 0.0 0.0 0.00 0.43 0.00 81 1012.8
20260507041852 45 284 0.0 0.0 0.00 0.43 0.00 81 1012.7
20260507040849 45 284 0.0 0.0 0.00 0.43 0.00 81 1012.8
20260507035848 45 284 0.0 0.0 0.00 0.50 0.43 80 1012.7
20260507034830 45 284 0.0 0.0 0.00 0.50 0.43 80 1012.6
20260507033847 46 283 0.0 0.0 0.00 0.50 0.43 80 1012.6
20260507032816 46 284 0.0 0.0 0.00 0.50 0.43 80 1012.8
20260507031854 47 284 0.0 0.0 0.00 0.50 0.43 79 1012.7
20260507030824 47 284 0.0 0.0 0.00 0.50 0.43 79 1012.8
20260507025829 47 283 0.0 0.0 0.00 0.61 0.43 78 1012.7
20260507024853 47 284 0.0 0.0 0.00 0.61 0.43 78 1012.7
20260507023823 48 284 0.0 0.0 0.00 0.61 0.43 77 1012.7
20260507022816 48 284 0.0 0.0 0.00 0.61 0.43 77 1012.5
20260507021836 49 284 0.0 0.0 0.00 0.61 0.43 77 1012.6
20260507020827 49 283 0.0 0.0 0.00 0.61 0.43 76 1012.4
20260507015831 50 284 0.0 0.0 0.00 0.66 0.43 74 1012.4
20260507014835 51 284 0.0 0.0 0.00 0.66 0.43 73 1012.3
20260507013828 51 284 0.0 0.0 0.00 0.66 0.43 71 1012.2
20260507012907 52 284 0.0 0.0 0.00 0.66 0.43 70 1012.3
20260507011835 53 284 0.0 0.0 0.00 0.66 0.43 68 1012.0
20260507010828 54 283 0.0 2.0 0.00 0.66 0.43 63 1011.9
20260507005831 54 284 1.0 3.0 0.00 0.66 0.43 62 1011.8
20260507004834 54 283 1.0 3.0 0.00 0.66 0.43 60 1011.8
20260507003829 55 300 2.0 5.0 0.00 0.66 0.43 59 1011.7
20260507002849 55 296 1.0 8.0 0.00 0.66 0.43 59 1011.8
20260507001842 56 337 2.0 5.0 0.00 0.66 0.43 59 1011.6
20260507000832 56 333 3.0 6.0 0.00 0.66 0.43 58 1011.6
20260506235817 56 318 2.0 7.0 0.00 0.68 0.43 60 1011.5
20260506234900 56 284 3.0 9.0 0.00 0.68 0.43 58 1011.4
20260506233830 56 342 4.0 8.0 0.00 0.68 0.43 58 1011.2
20260506232850 56 303 4.0 8.0 0.00 0.68 0.43 58 1011.1
20260506231839 57 278 1.0 9.0 0.00 0.68 0.43 57 1011.2
20260506230834 57 355 2.0 6.0 0.00 0.68 0.43 56 1010.9
20260506225818 57 325 3.0 8.0 0.00 0.74 0.43 56 1010.6
20260506224824 57 311 2.0 6.0 0.00 0.74 0.43 56 1010.7
20260506223816 57 314 3.0 9.0 0.00 0.74 0.43 56 1010.9
20260506222856 57 338 2.0 8.0 0.00 0.74 0.43 54 1011.0
20260506221853 58 346 3.0 9.0 0.00 0.74 0.43 53 1011.1
20260506220823 58 342 0.0 9.0 0.00 0.74 0.43 55 1011.0
20260506215828 58 283 3.0 8.0 0.00 0.87 0.43 53 1011.2
20260506214853 58 320 4.0 7.0 0.00 0.87 0.43 54 1011.3
20260506213825 59 325 2.0 8.0 0.00 0.87 0.43 52 1011.2
20260506212844 59 335 2.0 6.0 0.00 0.87 0.43 52 1011.2
20260506211839 59 294 4.0 7.0 0.00 0.87 0.43 49 1011.1
20260506210832 59 304 4.0 10.0 0.00 0.87 0.43 49 1011.1
20260506205816 59 290 5.0 11.0 0.00 1.06 0.43 50 1011.0
20260506204840 59 339 4.0 8.0 0.00 1.06 0.43 52 1010.9
20260506203900 60 315 3.0 9.0 0.00 1.06 0.43 55 1010.7
20260506202832 59 321 5.0 10.0 0.00 1.06 0.43 56 1010.9
20260506201825 59 5 4.0 8.0 0.00 1.06 0.43 55 1010.9
20260506200842 59 360 2.0 10.0 0.00 1.06 0.43 56 1010.9
20260506195826 59 289 5.0 11.0 0.00 1.24 0.43 56 1010.9
20260506194850 59 12 4.0 8.0 0.00 1.24 0.43 54 1010.9
20260506193848 59 327 3.0 8.0 0.00 1.24 0.43 54 1010.9
20260506192847 61 300 3.0 6.0 0.00 1.24 0.43 51 1011.0
20260506191839 61 311 3.0 6.0 0.00 1.24 0.43 51 1010.7
20260506190830 61 289 4.0 9.0 0.00 1.24 0.43 51 1010.5
20260506185834 61 5 1.0 8.0 0.00 1.24 0.43 54 1010.4
20260506184818 59 281 2.0 9.0 0.00 1.24 0.43 56 1010.5
20260506183838 59 307 3.0 13.0 0.00 1.24 0.43 55 1010.6
20260506182831 60 292 7.0 13.0 0.00 1.24 0.43 52 1010.6
20260506181910 60 299 4.0 9.0 0.00 1.24 0.43 56 1010.5
20260506180840 59 326 3.0 13.0 0.00 1.24 0.43 56 1010.5
20260506175827 60 10 4.0 10.0 0.00 1.24 0.43 55 1010.6
20260506174831 59 355 2.0 12.0 0.00 1.24 0.43 56 1010.9
20260506173848 58 309 1.0 6.0 0.00 1.24 0.43 61 1010.9
20260506172839 57 355 5.0 10.0 0.00 1.24 0.43 58 1011.0
20260506171831 57 304 3.0 12.0 0.00 1.24 0.43 59 1011.1
20260506170851 56 5 5.0 8.0 0.00 1.24 0.43 62 1011.1
20260506165835 55 282 3.0 11.0 0.00 1.24 0.43 62 1011.3
20260506164858 56 293 5.0 10.0 0.00 1.24 0.43 63 1011.4
20260506163827 55 327 3.0 11.0 0.00 1.24 0.43 64 1011.3
20260506162846 55 339 6.0 12.0 0.00 1.24 0.43 63 1011.3
20260506161839 54 5 6.0 10.0 0.00 1.24 0.43 65 1011.4
20260506160815 54 334 3.0 10.0 0.00 1.24 0.43 67 1011.2
20260506155817 53 311 2.0 9.0 0.00 1.25 0.43 67 1011.1
20260506154837 53 319 6.0 11.0 0.00 1.25 0.43 66 1011.0
20260506153832 53 347 5.0 13.0 0.00 1.25 0.43 68 1010.9
20260506152823 53 355 4.0 12.0 0.00 1.25 0.43 69 1010.9
20260506151816 52 5 4.0 11.0 0.00 1.25 0.43 70 1010.9
20260506150833 52 326 5.0 9.0 0.00 1.25 0.43 72 1010.9
20260506145817 51 355 3.0 10.0 0.00 1.25 0.43 74 1010.4
20260506144839 50 311 4.0 8.0 0.00 1.25 0.43 74 1010.5
20260506143832 50 345 2.0 8.0 0.00 1.25 0.43 74 1010.2
20260506142826 49 322 2.0 5.0 0.00 1.25 0.43 76 1010.2
20260506141844 49 314 1.0 11.0 0.00 1.25 0.43 76 1010.1
20260506140834 48 335 2.0 9.0 0.00 1.25 0.43 77 1009.7
20260506135839 48 333 2.0 9.0 0.00 1.25 0.43 78 1009.8
20260506134909 47 314 3.0 10.0 0.00 1.25 0.43 78 1009.5
20260506133842 46 304 5.0 8.0 0.00 1.25 0.43 79 1009.7
20260506132816 46 330 2.0 5.0 0.00 1.25 0.43 80 1009.9
20260506131835 46 328 4.0 10.0 0.00 1.25 0.43 80 1009.8
20260506130825 45 333 2.0 6.0 0.00 1.25 0.43 81 1009.4
20260506125826 45 328 2.0 5.0 0.00 1.25 0.43 81 1009.3
20260506124828 45 338 3.0 8.0 0.00 1.25 0.43 81 1009.2
20260506123845 45 330 4.0 10.0 0.00 1.25 0.43 82 1009.3
20260506122842 44 325 4.0 10.0 0.00 1.25 0.43 82 1009.4
20260506121833 44 333 3.0 6.0 0.00 1.25 0.43 83 1009.2
20260506120824 44 326 2.0 8.0 0.00 1.25 0.43 83 1008.8
20260506115828 44 326 2.0 6.0 0.00 1.25 0.43 83 1008.7
20260506114831 43 325 2.0 4.0 0.00 1.25 0.43 84 1008.7
20260506113824 43 325 1.0 4.0 0.00 1.25 0.43 83 1008.5
20260506112816 43 325 2.0 8.0 0.00 1.25 0.43 84 1008.3
20260506111835 43 324 3.0 6.0 0.00 1.25 0.43 84 1008.0
20260506110830 43 318 1.0 5.0 0.00 1.25 0.43 84 1007.7
20260506105832 43 315 2.0 6.0 0.00 1.28 0.43 84 1007.5
20260506104835 43 317 3.0 8.0 0.00 1.28 0.43 83 1007.5
20260506103826 43 328 2.0 8.0 0.00 1.28 0.43 84 1007.2
20260506102847 43 327 4.0 8.0 0.01 1.28 0.43 84 1007.1
20260506101847 43 319 2.0 9.0 0.01 1.28 0.43 84 1007.0
20260506100817 43 346 3.0 9.0 0.01 1.28 0.43 84 1006.7
20260506095842 43 336 1.0 3.0 0.01 1.29 0.43 85 1006.6
20260506094845 43 336 1.0 4.0 0.01 1.29 0.43 85 1006.4
20260506093902 43 342 2.0 6.0 0.01 1.29 0.43 85 1006.7
20260506092831 43 342 2.0 8.0 0.01 1.28 0.42 85 1006.6
20260506091824 43 346 2.0 8.0 0.02 1.28 0.42 85 1006.4
20260506090841 44 355 4.0 9.0 0.03 1.28 0.42 85 1006.5